This demonstration page uses our WeatherBlox Daily Observations layout. Learn more.

Left ArrowRight Arrow

53.62937, 11.41316

Hourly Observations for June 12, 2015

Temp ( °F °C ) Dew Point ( °F °C ) Humidity (%) Winds ( mph kmh ) Pressure ( in mb ) Visibility ( mi km ) Precip ( " mm )
6:20 am 06:20 Mostly Sunny 57 14 54 12 88 88 E 8 13 30.03 1017 7 11 N/A
6:50 am 06:50 Mostly Sunny 57 14 54 12 88 88 E 7 11 30.00 1016 7 11 N/A
7:20 am 07:20 Mostly Sunny 59 15 54 12 82 82 E 8 13 30.00 1016 7 11 N/A
7:50 am 07:50 Mostly Sunny 63 17 54 12 73 73 E 10 17 30.00 1016 7 11 N/A
8:20 am 08:20 Mostly Sunny 63 17 54 12 73 73 E 10 17 30.00 1016 7 11 N/A
8:50 am 08:50 Mostly Sunny 63 17 54 12 73 73 E 9 15 30.00 1016 7 11 N/A
9:20 am 09:20 Mostly Sunny 68 20 52 11 56 56 E 10 17 30.00 1016 7 11 N/A
9:50 am 09:50 Mostly Sunny 68 20 52 11 56 56 E 8 13 29.97 1015 7 11 N/A
10:20 am 10:20 Mostly Sunny 70 21 54 12 57 57 ENE 8 13 29.97 1015 7 11 N/A
10:50 am 10:50 Mostly Sunny 72 22 52 11 50 50 ENE 7 11 29.97 1015 7 11 N/A
11:20 am 11:20 Mostly Sunny 73 23 50 10 44 44 ESE 8 13 29.97 1015 7 11 N/A
11:50 am 11:50 Mostly Sunny 75 24 48 9 39 39 SE 8 13 29.97 1015 7 11 N/A
12:20 pm 12:20 Mostly Sunny 75 24 48 9 39 39 ESE 6 9 29.94 1014 7 11 N/A
12:50 pm 12:50 Mostly Sunny 77 25 50 10 39 39 SE 9 15 29.94 1014 7 11 N/A
1:20 pm 13:20 Mostly Sunny 75 24 48 9 39 39 VRB 6 9 29.94 1014 7 11 N/A
1:50 pm 13:50 Mostly Sunny 75 24 50 10 41 41 VRB 7 11 29.91 1013 7 11 N/A
2:20 pm 14:20 Mostly Sunny 79 26 50 10 37 37 E 9 15 29.91 1013 7 11 N/A
2:50 pm 14:50 Mostly Sunny 77 25 48 9 36 36 E 8 13 29.91 1013 7 11 N/A
3:20 pm 15:20 Mostly Sunny 79 26 48 9 34 34 ESE 8 13 29.91 1013 7 11 N/A
3:50 pm 15:50 Mostly Sunny 79 26 48 9 34 34 VRB 6 9 29.88 1012 7 11 N/A
4:20 pm 16:20 Mostly Sunny 79 26 48 9 34 34 VRB 5 7 29.88 1012 7 11 N/A
4:50 pm 16:50 Mostly Sunny 77 25 48 9 36 36 ESE 9 15 29.88 1012 7 11 N/A
5:20 pm 17:20 Mostly Sunny 77 25 50 10 39 39 SSE 3 6 29.88 1012 7 11 N/A
5:50 pm 17:50 Mostly Sunny 79 26 48 9 34 34 VRB 5 7 29.85 1011 7 11 N/A
6:20 pm 18:20 Mostly Sunny 79 26 50 10 37 37 SSW 5 7 29.85 1011 7 11 N/A
6:50 pm 18:50 Mostly Sunny 79 26 48 9 34 34 VRB 3 6 29.85 1011 7 11 N/A

Powered by AerisWeather